This is the latest recevied weather packets stored in our database for station/object NK7I. If no packets are shown the sender has not sent any weather packets the latest 10 day(s).
| Time | Temp. | Humidity | Pressure | Rain* | Wind** | Luminosity | Snow |
|---|---|---|---|---|---|---|---|
| 1778111783 | 22.78° C | 44% | 1009.4 hPa | 0 mm | - | 246 W/m² | - |
| 1778111484 | 22.78° C | 45% | 1009.4 hPa | 0 mm | - | 272 W/m² | - |
| 1778111183 | 22.78° C | 44% | 1009.4 hPa | 0 mm | - | 281 W/m² | - |
| 1778110883 | 22.78° C | 44% | 1009.6 hPa | 0 mm | - | 278 W/m² | - |
| 1778110583 | 22.78° C | 43% | 1009.6 hPa | 0 mm | - | 269 W/m² | - |
| 1778110283 | 22.78° C | 43% | 1009.7 hPa | 0 mm | - | 294 W/m² | - |
| 1778109983 | 22.78° C | 44% | 1009.8 hPa | 0 mm | - | 315 W/m² | - |
| 1778109683 | 22.78° C | 43% | 1009.8 hPa | 0 mm | - | 311 W/m² | - |
| 1778109383 | 22.78° C | 43% | 1009.9 hPa | 0 mm | - | 297 W/m² | - |
| 1778109083 | 22.78° C | 42% | 1010 hPa | 0 mm | - | 320 W/m² | - |
| 1778108782 | 22.78° C | 44% | 1010 hPa | 0 mm | - | 346 W/m² | - |
| 1778108483 | 23.33° C | 43% | 1010.1 hPa | 0 mm | - | 362 W/m² | - |
| 1778108182 | 22.78° C | 42% | 1010.1 hPa | 0 mm | - | 373 W/m² | - |
| 1778107882 | 22.78° C | 42% | 1010.1 hPa | 0 mm | - | 383 W/m² | - |
| 1778107583 | 22.78° C | 41% | 1010.1 hPa | 0 mm | - | 366 W/m² | - |
| 1778107283 | 23.33° C | 40% | 1010.3 hPa | 0 mm | - | 352 W/m² | - |
| 1778106983 | 23.33° C | 41% | 1010.3 hPa | 0 mm | - | 381 W/m² | - |
| 1778106682 | 23.33° C | 40% | 1010.3 hPa | 0 mm | - | 438 W/m² | - |
| 1778106382 | 23.33° C | 41% | 1010.3 hPa | 0 mm | - | 473 W/m² | - |
| 1778106083 | 23.33° C | 40% | 1010.5 hPa | 0 mm | - | 545 W/m² | - |
| 1778105782 | 23.33° C | 39% | 1010.4 hPa | 0 mm | - | 559 W/m² | - |
| 1778105482 | 23.33° C | 44% | 1010.6 hPa | 0 mm | - | 724 W/m² | - |
| 1778105187 | 22.78° C | 40% | 1010.7 hPa | 0 mm | - | 659 W/m² | - |
| 1778105183 | 22.78° C | 40% | 1010.7 hPa | 0 mm | - | 659 W/m² | - |
| 1778104882 | 22.78° C | 42% | 1010.8 hPa | 0 mm | - | 533 W/m² | - |
* Rain latest hour (hover to see other rain measurements)
** Current wind speed in m/s (hover to see current wind gust speed)